Probability
0 0 0 0 0 0 0 0 0 0 0 0 0 0 0 0 0 0 0 0 0 0 0 0 0 0 0 0 0 0 0 0 0 0 0 0 0 0 0 0 0 0 0
0 0 0 0 0 0 0 0 0 0 0 0 0 0 0 0 0 0 0 0 0 0 0 0 0 0 0 0 0 0 0 0 0 0 0 0 0 0 0 0 0 0 0
0 0 0 0 0 0 0 0 0 0 0 0 0 0 0 0 0 0 0 0 0 0 0 0 0 0 0 0 0 0 0 0 0 0 0 0 0 0 0 0 0 0 0
0 0 0 0 0 0 0 0 0 0 0 0 0 0 0 0 0 0 0 0 0 0 0 0 0 0 0 0 0 0 0 0 0 0 0 0 0 0 0 0 0 0 0
0 0 0 0 0 0 0 0 0 0 0 0 0 0 0 0 0 0 0 0 0 0 0 0 0 0 0 0 0 0 0 0 0 0 0 0 0 0 0 0 0 0 0
0 0 0 0 0 0 0 0 0 0 0 0 0 0 0 0 0 0 0 0 0 0 0 0 0 0 0 0 0 0 0 0 0 0 0 0 0 0 0 0 0 0 0
0 0 0 0 0 0 0 0 0 0 0 0 0 0 0 0 0 0 0 0 0 0 0 0 0 0 0 0 0 0 0 0 0 0 0 0 0 0 0 0 0 0 0
0 0 0 0 0 0 0 0 0 0 0 0 0 0 0 0 0 0 0 0 0 0 0 0 0 0 0 0 0 0 0 0 0 0 0 0 0 0 0 0 0 0 0
0 0 0 0 0 0 0 0 0 0 0 0 0 0 0 0 0 0 0 0 0 0 0 0 0 0 0 0 0 0 0 0 0 0 0 0 0 0 0 0 0 0 0
0 0 0 0 0 0 0 0 0 0 0 0 0 0 0 0 0 0 0 0 0 0 0 0 0 0 0 0 0 0 0 0 0 0 0 0 0 0 0 0 0 0 0
0 0 0 0 0 0 0 0 0 0 0 0 0 0 0 0 0 0 0 0 0 0 0 0 0 0 0 0 0 0 0 0 0 0 0 0 0 0 0 0 0 0 0
0 0 0 0 0 0 0 0 0 0 0 0 0 0 0 0 0 0 0 0 0 0 0 0 0 0 0 0 0 0 0 0 0 0 0 0 0 0 0 0 0 0 0
0 0 0 0 0 0 0 0 0 0 0 0 0 0 0 0 0 0 0 0 0 0 0 0 0 0 0 0 0 0 0 0 0 0 0 0 0 0 0 0 0 0 0
0 0 0 0 0 0 0 0 0 0 0 0 0 0 0 0 0 0 0 0 0 0 0 0 0 0 0 0 0 0 0 0 0 0 0 0 0 0 0 0 0 0 0
0 0 0 0 0 0 0 0 0 0 0 0 0 0 0 0 0 0 0 0 0 0 0 0 0 0 0 0 0 0 0 0 0 0 0 0 0 0 0 0 0 0 0
0 0 0 0 0 0 0 0 0 0 0 0 0 0 0 0 0 0 0 0 0 0 0 0 0 0 0 0 0 0 0 0 0 0 0 0 0 0 0 0 0 0 0
0 0 0 0 0 0 0 0 0 0 0 0 0 0 0 0 0 0 0 0 0 0 0 0 0 0 0 0 0 0 0 0 0 0 0 0 0 0 0 0 0 0 0
0 0 0 0 0 0 0 0 0 0 0 0 0 0 0 0 0 0 0 0 0 0 0 0 0 0 0 0 0 0 0 0 0 0 0 0 0 0 0 0 0 0 0
0 0 0 0 0 0 0 0 0 0 0 0 0 0 0 0 0 0 0 0 0 0 0 0 0 0 0 0 0 0 0 0 0 0 0 0 0 0 0 0 0 0 0
0 0 0 0 0 0 0 0 0 0 0 0 0 0 0 0 0 0 0 0 0 0 0 0 0 0 0 0 0 0 0 0 0 0 0 0 0 0 0 0 0 0 0
0 0 0 0 0 0 0 0 0 0 0 0 0 0 0 0 0 0 0 0 0 0 0 0 0 0 0 0 0 0 0 0 0 0 0 0 0 0 0 0 0 0 0
0 0 0 0 0 0 0 0 0 0 0 0 0 0 0 0 0 0 0 0 0 0 0 0 0 0 0 0 0 0 0 0 0 0 0 0 0 0 0 0 0 0 0
0 0 0 0 0 0 0 0 0 0 0 0 0 0 0 0 0 0 0 0 0 0 0 0 0 0 0 0 0 0 0 0 0 0 0 0 0 0 0 0 0 0 0
0 0 0 0 0 0 0 0 0 0 0 0 0 0 0 0 0 0 0 0 0 0 0 0 0 0 0 0 0 0 0 0 0 0 0 0 0 0 0 0 0 0 0
0 0 0 0 0 0 0 0 0 0 0 0 0 0 0 0 0 0 0 0 0 0 0 0 0 0 0 0 0 0 0 0 0 0 0 0 0 0 0 0 0 0 0
0 0 0 0 0 0 0 0 0 0 0 0 0 0 0 0 0 0 0 0 0 0 0 0 0 0 0 0 0 0 0 0 0 0 0 0 0 0 0 0 0 0 0
Wind_Speed
3 4 5 4 3 4 4 3 3 3 3 2 1 2 2 2 3 3 4 4 4 3 2 2 2 2 1 2 2 2 2 2 2 2 3 3 2 1 1 1 1 2 3
4 4 5 5 5 4 4 3 3 3 3 2 1 1 1 1 2 2 3 4 4 3 2 2 2 2 2 2 3 2 1 1 1 1 2 3 3 2 2 1 1 2 3
3 3 4 5 5 6 5 4 3 3 3 2 2 2 2 1 2 3 3 4 4 3 3 2 2 2 2 2 2 2 1 2 2 1 0 1 3 4 2 1 1 2 2
3 3 3 4 5 5 4 4 4 4 3 3 2 2 2 1 2 2 2 3 4 4 3 3 2 2 2 2 2 2 2 1 2 2 1 1 1 2 4 3 2 2 3
2 3 3 3 4 4 4 4 4 5 4 3 2 2 1 1 1 2 2 3 3 4 4 3 3 3 2 2 3 3 2 2 2 1 2 2 2 1 3 5 4 3 3
2 3 3 3 4 4 4 4 5 5 4 3 3 2 1 2 2 3 3 3 3 3 5 4 3 3 2 3 2 2 2 1 2 2 1 1 1 2 2 4 5 5 4
2 2 3 4 5 5 5 4 5 5 5 4 3 3 2 2 2 2 2 3 3 3 4 4 3 3 2 2 2 2 2 2 2 2 2 2 2 2 3 4 5 6 4
1 2 2 2 3 4 5 5 5 4 4 4 3 3 3 2 2 3 3 2 2 3 4 4 4 4 3 3 2 2 2 2 2 3 3 2 3 2 3 3 4 6 5
1 2 2 2 3 4 4 4 4 4 5 4 3 3 3 3 3 3 3 2 3 3 4 4 4 4 4 3 3 2 2 2 2 2 3 2 3 3 3 3 3 4 7
0 1 1 2 2 3 3 4 4 4 4 4 3 3 3 2 2 2 3 3 4 4 4 4 4 4 4 4 3 3 3 3 2 2 3 3 3 3 3 3 3 3 5
1 1 1 1 2 2 3 3 3 4 4 4 3 3 3 3 3 3 3 3 4 4 4 4 4 4 5 4 4 3 4 4 4 3 3 4 4 3 3 3 3 3 4
1 1 1 1 2 2 3 3 3 4 4 4 3 3 3 3 3 3 3 4 4 4 4 4 4 5 5 5 4 5 5 4 5 5 4 4 4 4 4 4 4 4 4
1 1 1 1 2 2 2 2 3 3 3 3 3 4 3 3 4 4 4 4 4 4 4 5 5 5 5 5 5 5 5 5 4 4 4 5 4 5 4 5 4 4 5
1 1 1 2 2 2 2 2 2 3 3 3 3 4 4 4 3 4 4 4 4 4 4 4 4 4 5 5 5 5 5 5 5 5 5 5 4 5 5 5 5 5 6
2 2 2 2 2 2 2 2 2 3 3 3 3 3 3 3 3 3 4 4 4 4 4 4 5 5 4 5 6 5 5 5 5 5 5 5 6 8 7 6 6 6 5
4 3 3 2 2 2 2 2 2 2 2 2 3 3 4 4 4 4 4 4 5 5 5 5 5 5 5 9 10 8 5 5 5 6 6 5 5 8 10 10 10 9 7
4 3 3 3 2 2 1 1 1 1 2 2 3 3 4 4 4 4 4 5 5 5 5 5 5 5 7 11 11 10 6 5 5 6 6 6 6 6 6 8 10 9 10
4 4 3 2 2 1 1 1 1 1 1 2 3 3 3 3 4 4 4 5 4 4 4 5 5 5 7 11 10 10 6 5 5 5 6 6 7 7 8 7 8 7 7
4 3 3 2 1 1 1 0 1 1 2 2 3 3 3 3 3 4 4 4 4 4 4 4 4 5 6 10 11 10 4 4 5 5 5 6 6 11 13 9 8 8 7
2 2 2 1 1 1 0 1 0 1 2 2 3 2 2 2 3 3 3 3 3 3 4 4 4 5 5 9 11 11 4 5 5 5 5 6 10 12 14 8 7 9 9
2 2 2 2 2 1 1 1 1 2 3 2 2 2 2 2 2 3 3 3 3 3 3 4 4 4 5 8 10 11 5 5 5 5 5 6 13 14 14 12 7 10 10
2 2 2 2 1 1 1 1 2 3 2 1 1 2 2 2 2 2 3 2 2 3 3 3 4 3 4 6 8 11 9 8 5 5 5 7 13 14 14 10 11 14 10
3 3 3 2 1 1 2 3 3 2 1 1 1 2 2 2 2 2 2 2 2 2 3 3 4 4 4 5 9 9 10 11 6 5 9 11 13 12 9 11 14 9 5
3 3 3 3 2 2 2 3 2 1 1 1 2 2 1 2 2 2 2 2 2 2 3 3 4 4 4 4 4 4 5 7 6 5 7 10 11 9 8 8 7 5 5
3 3 4 4 4 2 2 2 1 1 1 1 1 2 2 2 2 2 2 3 3 3 3 3 3 4 5 6 9 7 5 4 5 5 4 4 4 5 5 5 5 5 5
3 3 4 4 4 3 3 2 1 2 2 2 2 2 2 2 2 2 3 4 4 6 7 7 6 5 7 10 10 10 10 10 9 5 3 4 4 4 5 6 6 5 5
Wind_Direction
30 29 30 31 41 39 43 43 40 33 44 44 32 30 23 18 22 21 17 15 14 14 27 15 5 2 354 335 334 321 321 328 339 326 314 307 299 307 306 332 343 344 342
36 33 33 29 30 30 26 35 33 32 41 39 28 31 12 21 23 14 12 7 8 6 13 19 11 359 354 3 357 356 329 323 1 342 311 312 315 316 295 306 329 338 339
58 30 28 28 29 24 14 15 15 27 34 44 55 45 36 15 12 5 5 358 358 1 9 11 7 360 1 342 342 354 343 315 313 1 349 306 287 309 298 293 314 333 331
60 45 30 25 26 16 10 17 16 24 21 35 53 55 43 2 326 344 351 350 357 360 6 7 6 8 11 359 351 3 338 334 308 301 311 284 283 294 300 302 316 318 306
64 47 30 23 24 21 18 14 22 29 24 28 40 60 40 349 346 356 358 356 1 8 10 12 9 10 8 3 357 356 356 346 331 316 315 304 303 296 282 296 313 314 298
53 43 28 26 24 19 21 18 25 24 20 26 28 39 18 2 10 4 3 359 358 0 2 5 8 360 357 356 347 342 346 339 338 330 328 324 305 299 289 288 303 303 300
60 39 25 18 16 12 14 16 23 18 11 16 22 25 18 16 12 355 355 357 358 354 351 357 353 348 339 341 345 347 346 337 333 318 307 306 297 296 289 284 296 298 293
35 30 19 13 14 11 15 15 15 12 9 11 7 11 12 11 8 2 355 353 350 344 344 350 349 348 348 346 340 343 342 342 330 323 311 304 303 306 301 290 296 300 296
29 25 5 11 15 13 11 12 14 8 6 5 2 11 14 13 8 -0 358 360 355 352 355 349 347 345 346 347 343 345 337 330 317 305 300 301 306 310 303 300 292 287 295
339 350 344 359 7 10 7 11 13 6 358 358 2 8 4 7 6 12 9 3 357 357 354 349 344 346 347 347 344 334 329 327 329 324 327 324 315 315 313 304 297 286 283
257 287 318 338 357 9 9 5 6 4 360 357 1 10 8 12 16 15 4 358 357 355 351 345 347 351 349 346 343 334 333 334 332 329 330 326 322 317 314 308 300 292 285
243 265 294 337 350 354 357 360 2 1 355 357 6 7 9 12 15 10 359 359 1 359 353 351 352 354 352 348 345 338 339 333 330 330 330 323 323 322 317 314 308 300 290
272 301 320 329 329 332 340 351 2 359 355 5 12 9 6 9 7 358 352 355 357 359 357 358 357 351 347 347 347 344 342 340 337 334 329 324 326 321 318 314 310 307 307
238 260 288 296 306 320 329 342 357 357 360 9 14 10 1 0 356 352 354 355 357 1 358 354 350 347 343 347 351 352 352 348 349 347 342 336 333 325 323 320 320 317 313
239 241 249 263 287 310 325 346 350 351 359 9 10 356 351 354 355 357 0 0 360 359 353 356 357 353 348 351 354 354 350 345 344 344 342 337 336 330 327 324 322 318 311
242 246 250 253 260 280 307 336 342 343 353 2 353 346 355 358 359 357 2 2 3 3 0 1 357 356 355 356 357 354 352 347 343 339 337 334 334 331 330 327 322 318 312
237 237 239 240 243 251 278 290 310 341 3 3 356 357 1 3 2 2 7 1 0 4 2 0 359 354 352 356 357 356 354 344 340 336 334 333 332 328 326 325 325 322 318
232 236 236 235 237 242 277 293 358 8 1 359 354 354 357 1 1 4 1 355 356 359 356 355 355 352 348 353 355 356 355 343 340 339 338 333 334 335 332 329 325 320 320
220 224 218 207 203 234 267 32 12 4 355 341 338 341 346 352 355 353 348 347 350 350 349 348 351 349 342 347 351 353 344 342 337 336 336 330 329 333 339 337 327 324 324
209 202 175 149 176 253 207 128 300 333 312 308 315 332 339 339 338 333 334 343 341 340 343 346 348 340 334 339 346 348 342 334 330 329 330 329 331 334 338 336 328 325 325
197 170 155 172 211 210 151 177 266 276 285 303 320 332 331 325 320 324 332 338 337 340 340 336 334 333 329 332 340 343 341 331 326 327 330 328 330 334 336 337 331 324 327
191 170 173 202 215 158 161 216 264 284 313 318 318 320 323 321 326 326 328 334 333 333 329 330 326 326 324 330 335 338 338 335 326 321 322 323 329 334 337 337 334 335 336
198 190 189 202 217 197 189 225 266 305 321 313 298 304 321 326 325 317 316 324 327 321 317 321 318 319 323 325 331 334 334 333 329 322 323 326 330 334 338 337 338 341 338
205 199 191 204 233 238 230 240 269 299 220 249 279 300 310 318 326 315 305 302 302 299 301 304 306 311 316 318 324 326 329 333 330 330 331 330 332 335 337 337 340 340 334
204 194 201 217 232 234 243 256 248 186 221 250 279 295 294 298 307 304 290 287 276 281 287 286 292 303 307 315 324 329 328 329 327 335 334 335 338 343 339 335 331 330 333
199 202 213 223 230 224 240 251 223 192 199 238 258 265 274 284 291 299 310 302 294 305 304 299 298 297 305 319 326 330 330 333 338 343 331 330 330 328 328 327 326 326 326